Location: Koniecpol
(50.7720°N, 19.6789°E)
Time: 11:06:12
(UTC+00:00)

Daily predictions for brighter satellites

Satellite Brightness Start Highest point End
(mag) Time Altitude Azimuth Time Altitude Azimuth Time Altitude Azimuth
NOSS 3-3 (A) 3.9 18:55:40 10° SSW 19:00:36 48° ESE 19:06:28 10° NE
Cosmos 909 Rocket 4.3 18:55:22 10° S 19:01:22 47° ESE 19:07:31 10° NE
ISS -3.8 18:58:56 10° WSW 19:02:16 85° S 19:05:38 10° ENE
Sich 1 Rocket 4.2 18:57:59 10° SSW 19:02:17 60° WNW 19:06:39 10° N
SL-08 R/B 3.5 19:01:02 10° NNE 19:05:47 54° E 19:10:24 10° S
Cosmos 1437 Rocket 4.1 19:03:33 10° SE 19:06:05 19° E 19:08:39 10° NE
Cosmos 1452 Rocket 3.8 19:02:08 10° SSW 19:07:21 74° WNW 19:12:37 10° NNE
Cosmos 1626 Rocket 4.0 19:05:12 10° N 19:09:25 45° ENE 19:13:38 10° SSE
Cosmos 1607 3.9 19:06:52 10° SW 19:13:01 83° SE 19:19:20 10° NE
Cosmos 2322 Rocket 3.1 19:08:08 10° NNW 19:13:24 37° NE 19:18:38 10° ESE
Terra 2.3 19:09:08 10° S 19:13:47 62° W 19:18:27 10° NNW
Cosmos 2061 Rocket 4.1 19:08:35 10° S 19:14:40 59° E 19:20:52 10° NNE
Cosmos 2237 4.4 19:08:55 10° NNW 19:14:41 78° WSW 19:20:25 10° SSE
Cosmos 1743 3.4 19:12:07 10° NNW 19:14:59 40° W 19:17:49 10° SSW
Cosmos 1302 Rocket 4.0 19:11:06 10° SSW 19:16:16 86° ESE 19:21:30 10° NNE
Cosmos 2151 3.6 19:14:26 10° N 19:18:19 39° ENE 19:22:05 11° SE
Cosmos 2082 Rocket 2.2 19:12:49 10° SSW 19:18:33 81° ESE 19:24:17 10° NNE
Cosmos 2369 4.1 19:15:05 10° NW 19:20:45 64° WSW 19:26:24 10° SSE
ADEOS 4.0 19:16:18 10° S 19:21:29 65° WSW 19:26:41 10° NNW
Helios 1A Rocket 3.1 19:20:33 10° N 19:23:38 54° WNW 19:26:43 10° SSW
Cosmos 1802 Rocket 4.4 19:18:48 10° SSW 19:24:58 70° WNW 19:31:06 10° N
MOS 1-B 4.4 19:26:13 10° SSE 19:32:02 86° WSW 19:37:53 10° NNW
NOSS 3-3 (C) 3.7 19:27:11 10° SSW 19:32:22 65° SE 19:38:36 10° NE
Cosmos 1455 Rocket 4.2 19:32:43 10° SSW 19:36:57 46° WNW 19:41:11 10° N
CZ-4B R/B 2.8 19:35:01 14° SE 19:37:43 49° ENE 19:41:06 10° N
USA 306 2.5 19:35:21 10° W 19:38:23 47° NNW 19:40:25 10° ENE
Okean O Rocket 1.8 19:34:31 10° S 19:38:48 70° WSW 19:43:07 10° NNW
Cosmos 2278 3.9 19:33:51 10° NNW 19:39:35 69° ENE 19:44:30 14° SE
Cosmos 2228 3.5 19:39:03 10° SSW 19:43:05 57° WNW 19:47:09 10° N
USA 186 1.9 19:40:57 11° S 19:43:29 56° WSW 19:46:14 10° NNW
SL-16 R/B 2.2 19:38:27 10° NNW 19:44:10 89° ENE 19:49:05 14° SSE
NOSS 3-4 (A) 3.9 19:37:46 10° NW 19:44:18 74° NE 19:51:14 13° SE
NOSS 3-4 (C) 3.9 19:38:24 10° NW 19:44:57 74° NE 19:51:53 13° SE
Cosmos 1805 3.6 19:44:27 10° N 19:47:30 35° ENE 19:49:24 18° SE
Okean 1-7 Rocket 4.3 19:45:57 10° N 19:50:11 40° ENE 19:53:16 17° SE
Cosmos 1544 Rocket 3.5 19:46:05 10° S 19:50:24 74° E 19:54:44 10° NNE
Cosmos 2233 Rocket 4.3 19:45:40 10° SSW 19:51:49 69° WNW 19:57:59 10° N
Cosmos 1891 Rocket 4.5 19:45:53 10° S 19:51:54 64° E 19:57:52 10° NNE
NOSS 3 (A) 4.1 19:52:20 10° NW 19:54:32 66° NE 19:55:59 23° SE
CZ-2C R/B 2.6 19:55:38 22° SE 19:56:59 39° ENE 19:59:37 10° N
Cosmos 1980 Rocket 4.4 19:55:05 10° NW 19:58:59 19° W 20:02:53 10° SW
COSMOS 2406 3.2 19:53:44 10° SSW 19:59:28 81° ESE 20:05:15 10° NNE
Okean-O 3.5 19:55:30 10° S 19:59:42 45° W 20:03:56 10° NNW
CZ-4 R/B 4.3 20:00:16 10° W 20:00:36 10° W 20:00:56 10° W
Ariane Rocket 3.0 19:58:02 16° SSE 20:02:07 78° ENE 20:07:12 10° NNW
Meteor 1-20 Rocket 4.4 19:59:11 10° NNW 20:04:46 74° W 20:09:56 13° S
SPOT 3 Rocket 3.6 20:01:10 14° SSE 20:05:36 80° WSW 20:10:47 10° NNW
Cosmos 1933 3.1 20:02:11 12° S 20:05:40 82° E 20:09:30 10° NNE
Cosmos 1758 Rocket 4.1 20:02:14 10° NNW 20:06:32 56° W 20:10:37 11° S
Nadezhda 4 Rocket 4.1 20:01:02 10° N 20:07:06 60° ENE 20:11:39 18° SSE
EP 1 4.3 20:06:14 10° NW 20:08:48 66° SW 20:09:55 30° SSE
DNEPR-1 R/B 4.4 20:05:23 10° NW 20:10:49 78° SW 20:15:40 19° SSE
Cosmos 2333 Rocket 2.4 20:06:17 10° NW 20:11:57 67° WSW 20:16:16 18° SSE
Cosmos 1763 Rocket 4.2 20:13:22 20° SSE 20:16:20 35° ESE 20:21:05 10° NE
Cosmos 1825 Rocket 3.6 20:15:28 10° N 20:19:48 63° ENE 20:22:19 24° SSE
Helios 1B rocket 4.0 20:21:14 15° E 20:22:49 19° ENE 20:25:20 10° NNE
Cosmos 1536 4.3 20:20:20 10° NNE 20:23:14 21° ENE 20:24:41 17° E
Okean 1 3.5 20:22:19 28° SE 20:23:42 42° E 20:27:08 10° NNE
Cosmos 990 Rocket 4.3 20:18:36 10° NNW 20:23:43 57° ENE 20:26:57 22° SE
Cosmos 44 4.1 20:19:21 10° NW 20:24:40 51° NE 20:28:39 17° ESE
Cosmos 1953 Rocket 4.1 20:21:37 10° N 20:25:47 43° ENE 20:27:55 24° SE
Cosmos 2360 Rocket 2.2 20:20:13 10° NNW 20:25:56 85° WSW 20:29:39 22° SSE
Cosmos 1461 2.8 20:24:01 10° SW 20:27:42 70° NW 20:31:24 10° NE
Cosmos 1707 3.8 20:28:22 17° E 20:28:22 17° E 20:30:08 10° NE
CZ-4B R/B 3.7 20:25:36 18° S 20:29:07 60° WSW 20:33:56 10° NNW
Cosmos 2026 Rocket 4.4 20:23:26 10° N 20:29:42 53° ENE 20:33:45 22° SE
Cosmos 1602 Rocket 4.1 20:26:32 10° NNW 20:30:45 54° W 20:33:50 18° SSW
CZ-4C R/B 4.2 20:28:07 10° W 20:32:25 30° NNW 20:37:49 10° NE
Cosmos 2333 4.2 20:27:43 10° NNW 20:33:29 87° WSW 20:37:06 24° SSE
GRACE-FO 1 4.4 20:36:05 33° SSE 20:37:29 71° E 20:40:58 10° N
GRACE-FO 2 4.4 20:36:33 33° SSE 20:37:57 72° E 20:41:27 10° N
Cosmos 1777 Rocket 4.2 20:32:47 10° NNW 20:37:59 66° WSW 20:41:10 23° S
Cosmos 2058 Rocket 4.1 20:37:19 25° ESE 20:38:42 30° E 20:42:29 10° NNE
ISS -3.7 20:35:48 10° W 20:39:10 77° N 20:41:23 19° E
Cosmos 2219 Rocket 2.2 20:33:41 10° NNW 20:39:22 81° ENE 20:42:48 25° SE
Cosmos 1437 Rocket 4.0 20:37:13 10° SW 20:40:31 36° WNW 20:43:53 10° N
Cosmos 220 Rocket 4.2 20:36:31 10° SSW 20:40:32 66° WNW 20:44:38 10° NNE
USA 290 2.1 20:39:45 39° S 20:40:43 65° ESE 20:43:51 10° NNE
Helios 1A 3.5 20:42:13 10° NNE 20:45:52 36° E 20:46:48 31° SE
Cosmos 1503 Rocket 4.0 20:41:20 10° NNW 20:46:31 72° WSW 20:49:23 27° S
Cosmos 2098 Rocket 3.4 20:44:22 15° SSW 20:48:16 65° WNW 20:52:21 10° N
DEBRIS 4.0 20:44:58 10° W 20:48:48 81° S 21:02:51 10° E
Cosmos 1076 Rocket 3.4 20:45:14 10° N 20:49:32 89° WSW 20:51:27 32° S
RESURS DK-1 3.6 20:51:40 10° NNW 20:55:17 32° NE 20:57:22 20° E
ARIANE 5 R/B 4.0 20:54:55 20° ESE 20:57:02 29° ENE 21:00:53 10° N
Cosmos 2322 Rocket 2.8 20:52:08 10° NW 20:57:35 48° WSW 21:00:46 24° S
ALOS 2 4.2 20:56:35 18° ESE 20:58:42 25° ENE 21:02:19 10° N
Cosmos 1464 Rocket 4.2 20:53:51 14° SSW 20:59:09 71° WNW 21:05:22 10° N
Cosmos 1354 Rocket 4.0 20:55:35 10° NNW 21:00:51 78° WSW 21:03:26 31° SSE
Cosmos 2082 Rocket 4.5 20:58:32 10° W 21:03:16 26° NW 21:08:01 10° NNE
USA 306 3.7 21:03:36 10° WNW 21:04:50 19° NW 21:04:50 19° NW
Cosmos 372 Rocket 4.2 21:00:29 10° NNW 21:05:33 58° ENE 21:08:03 29° SE
Cosmos 1606 Rocket 4.1 21:03:17 19° SSW 21:06:12 56° WNW 21:10:27 10° N
Cosmos 1766 2.6 21:09:21 10° N 21:12:35 89° W 21:13:02 63° S
Cosmos 1271 Rocket 3.6 21:12:52 27° E 21:12:52 27° E 21:15:44 10° NE
Cosmos 1726 Rocket 3.7 21:12:34 26° SSW 21:14:39 60° WNW 21:18:41 10° N
Cosmos 1842 3.7 21:15:02 32° E 21:15:02 32° E 21:17:44 10° NNE
Cosmos 2237 Rocket 3.6 21:10:52 10° NNW 21:15:55 31° NE 21:20:31 12° ESE
Cosmos 540 Rocket 3.4 21:13:16 23° SSW 21:16:34 90° SE 21:21:45 10° NNE
Cosmos 1092 Rocket 3.9 21:10:56 10° N 21:17:09 88° WSW 21:20:29 30° S
Aureole 1 Rocket 3.9 21:13:24 10° NNW 21:19:06 86° WSW 21:22:39 30° SSE
Meteor 1-26 Rocket 4.1 21:17:24 28° S 21:20:29 87° E 21:26:14 10° NNE
CZ-2C R/B 4.4 21:17:31 11° ESE 21:21:03 21° ENE 21:24:54 10° N
Meteor 2-2 Rocket 4.2 21:23:03 30° S 21:26:02 83° E 21:31:51 10° NNE
Cosmos 1937 Rocket 4.0 21:21:52 10° NNW 21:26:54 50° ENE 21:29:23 27° ESE
COSMOS 2428 2.9 21:21:34 10° NNW 21:27:16 67° ENE 21:30:13 29° SE
SL-16 R/B 4.2 21:23:51 10° WNW 21:27:28 18° W 21:30:55 10° SW
NOSS 0 Rocket 4.3 21:21:35 10° NNW 21:27:43 58° NE 21:31:29 23° SE
Geosat 3.9 21:27:04 10° NNE 21:32:07 89° SE 21:35:07 25° SSW
Cosmos 468 Rocket 3.9 21:30:32 33° S 21:32:54 73° ESE 21:38:09 10° NNE
Cosmos-2242 3.1 21:34:03 35° SSW 21:35:38 64° WNW 21:39:44 10° N
USA 234 3.8 21:39:46 10° ENE 21:45:41 35° SE 21:47:10 32° SSE
Cosmos 1812 Rocket 4.1 21:48:19 38° SE 21:49:12 43° E 21:53:23 10° NNE
TSX-5 3.6 21:47:10 10° NW 21:50:06 54° WSW 21:50:06 54° WSW
ACS3 Solar Sail 3.8 21:48:11 10° NE 21:50:58 13° E 21:53:45 10° ESE
CZ-2C R/B 4.3 21:47:42 10° NNE 21:52:53 33° E 21:54:49 27° SE
SeaSat 1 4.2 21:49:27 10° E 21:53:31 27° NE 21:57:34 10° NNW
Cosmos 2333 Rocket 4.5 21:53:08 10° WNW 21:55:08 12° W 21:57:10 10° WSW
Helios 1B rocket 2.8 21:55:11 38° WSW 21:55:33 39° W 21:58:52 10° NNW
Cosmos 2279 Rocket 3.9 21:53:17 33° S 21:56:19 87° E 22:02:37 10° N
Meteor 1-14 Rocket 4.1 21:51:34 10° NNW 21:57:09 84° W 21:59:19 39° S
Cosmos 1470 2.3 21:54:52 10° NNW 21:58:09 65° W 21:58:12 65° WSW
Cosmos 1536 3.7 21:55:11 10° NNW 21:58:33 34° W 21:59:12 31° WSW
Cosmos 2221 2.4 21:59:07 54° SSE 21:59:54 72° E 22:04:06 10° NNE
Cosmos 1707 3.9 21:59:51 22° W 22:00:14 22° WNW 22:02:33 10° NNW
Cosmos 1898 Rocket 3.5 21:55:08 10° NNW 22:00:19 72° WSW 22:02:03 42° S
Cosmos 1634 Rocket 4.2 21:57:45 26° SSW 22:01:16 65° WNW 22:07:28 10° N
CZ-2C R/B 3.6 21:58:22 10° NNE 22:02:51 88° WNW 22:04:14 45° SSW
Cosmos 2297 Rocket 2.9 22:01:44 32° SE 22:03:03 36° ESE 22:08:09 10° NE
Cosmos 44 4.2 22:00:46 10° NW 22:05:43 38° WSW 22:06:56 34° SSW
Cosmos 2360 Rocket 4.2 22:05:44 10° WNW 22:09:02 16° W 22:11:23 13° SW
Cosmos 2322 3.9 22:06:16 10° NW 22:11:52 58° WSW 22:13:46 38° S
ISS -2.2 22:12:39 10° W 22:14:19 25° W 22:14:19 25° W
Cosmos 2058 Rocket 4.4 22:14:25 21° WSW 22:16:30 32° WNW 22:20:25 10° N
GP-B 3.2 22:13:32 10° N 22:17:54 65° E 22:18:52 49° SE
SAR-Lupe-2 3.3 22:20:00 72° W 22:20:00 72° W 22:23:18 10° NNW
Cosmos 2219 Rocket 3.9 22:18:40 10° NW 22:22:39 20° W 22:24:29 17° SW
Cosmos 2266 Rocket 3.9 22:18:14 10° N 22:24:18 86° W 22:26:50 38° S
Cosmos 1975 3.2 22:21:37 10° NNW 22:25:08 43° W 22:25:24 42° WSW
Cosmos 841 Rocket 3.5 22:28:15 36° SW 22:30:24 78° WNW 22:35:41 10° NNE
RESURS DK-1 3.2 22:29:02 10° NW 22:32:35 33° WSW 22:32:35 33° WSW
ARIANE 5 R/B 3.4 22:32:16 34° SW 22:33:12 39° W 22:37:24 10° NNW
Meteor 1-19 Rocket 4.4 22:32:11 35° SSW 22:34:46 73° WNW 22:40:44 10° N
ALOS 2 3.2 22:33:58 39° SW 22:34:50 44° W 22:39:04 10° NNW
Cosmos 1271 Rocket 4.3 22:46:13 20° W 22:47:01 22° WNW 22:49:44 10° NNW
SL-16 R/B 3.3 22:42:57 10° NNW 22:48:21 41° NE 22:53:43 10° ESE
Lacrosse 4 Rocket 1.7 22:51:57 45° ESE 22:52:04 45° ESE 22:55:58 10° NE
Cosmos 1655 Rocket 4.0 22:46:16 10° N 22:52:32 81° E 22:55:28 34° SSE
Cosmos 1766 Rocket 3.4 22:50:07 10° NNW 22:54:26 84° W 22:55:19 56° S
PSLV R/B 4.2 22:50:27 10° N 22:54:35 48° WNW 22:55:59 35° WSW
Cosmos 2237 Rocket 2.3 22:54:45 10° NW 23:00:22 62° WSW 23:02:17 40° S
CZ-2C R/B 2.5 22:58:57 41° S 23:00:47 74° WSW 23:06:01 10° NNW
BREEZE-M DEB (TANK) 3.6 22:52:27 10° WSW 23:03:27 84° NNW 23:06:37 10° ENE
Cosmos 1980 3.9 22:58:58 10° NW 23:04:28 54° WSW 23:06:13 39° SSW
Iridium 4 Rocket 3.9 23:04:44 35° SSE 23:07:09 68° E 23:12:57 10° N
COSMOS 2428 4.0 23:06:30 10° NW 23:11:01 25° WSW 23:12:11 23° WSW
Meteor 2-11 Rocket 4.4 23:05:10 10° N 23:11:21 80° E 23:14:22 32° SSE
Cosmos 2227 Rocket 2.6 23:11:04 36° SSE 23:13:02 51° ESE 23:18:31 10° NE
Meteor 2-4 Rocket 3.6 23:11:49 39° SSW 23:13:54 84° W 23:19:29 10° NNE
BREEZE-M DEB (TANK) 4.2 23:23:10 22° ESE 23:23:10 22° ESE 23:25:10 10° ESE
Cosmos 2263 Rocket 2.9 23:20:54 29° SSE 23:22:55 40° ESE 23:28:05 10° NE
Cosmos 1151 Rocket 4.0 23:25:13 29° SE 23:26:39 38° E 23:30:39 10° NNE
Cosmos 1238 Rocket 3.4 23:25:54 39° WSW 23:26:51 47° WNW 23:31:06 10° N
USA 234 3.2 23:22:36 10° ENE 23:29:13 89° SSE 23:34:29 17° WSW
SeaSat 1 2.4 23:28:37 37° SSE 23:30:31 70° WSW 23:35:26 10° NW
CZ-2C R/B 3.9 23:27:17 10° N 23:32:48 49° WNW 23:35:48 26° SW
ACS3 Solar Sail 1.8 23:28:24 10° NNE 23:34:24 71° E 23:37:20 32° S
Cosmos 1758 3.0 23:31:05 10° N 23:34:43 79° E 23:35:23 56° SSE
Cosmos 1500 Rocket 4.0 23:30:29 10° N 23:34:53 59° ENE 23:36:52 30° SE
Meteor 1-27 Rocket 4.4 23:32:34 27° SW 23:35:24 47° WNW 23:40:56 10° N
ATLAS 2AS CENTAUR R/B 3.4 23:33:00 10° NW 23:39:39 53° NE 23:46:17 10° ESE
BlueWalker 3 1.6 23:41:17 64° SSE 23:41:22 64° SSE 23:44:54 10° ENE
Cosmos 2297 Rocket 2.9 23:43:30 22° WSW 23:46:57 48° NW 23:52:25 10° NNE
Cosmos 1125 Rocket 3.5 23:42:12 10° NNW 23:47:33 86° ENE 23:50:47 24° SSE
Okean 3 Rocket 3.7 23:43:27 10° NNW 23:47:56 64° W 23:49:21 41° SSW
Landsat 5 4.0 23:46:31 10° N 23:50:27 45° WNW 23:51:40 34° WSW
Nadezhda 2 Rocket 4.4 23:45:40 10° NNW 23:51:48 74° W 23:55:06 29° S
Cosmos 1340 Rocket 2.7 23:48:11 10° N 23:52:02 77° ENE 23:53:20 40° SSE
Cosmos 1842 Rocket 4.1 23:53:33 34° WSW 23:54:59 47° WNW 23:59:17 10° N
